Year,Month,Day,Hour,Minute,Value (Times are PST for windgust in km/hr)
2015,08,30,00,08,1.60
2015,08,30,00,09,1.60
2015,08,30,00,10,1.60
2015,08,30,00,11,1.60
2015,08,30,00,12,1.60
2015,08,30,00,13,4.80
2015,08,30,00,14,4.80
2015,08,30,00,15,4.80
2015,08,30,00,16,4.80
2015,08,30,00,17,6.40
2015,08,30,00,18,1.60
2015,08,30,00,19,4.80
2015,08,30,00,20,1.60
2015,08,30,00,21,4.80
2015,08,30,00,22,4.80
2015,08,30,00,23,4.80
2015,08,30,00,24,3.20
2015,08,30,00,25,4.80
2015,08,30,00,26,8.10
2015,08,30,00,27,4.80
2015,08,30,00,28,3.20
2015,08,30,00,29,1.60
2015,08,30,00,35,1.60
2015,08,30,00,36,1.60
2015,08,30,00,37,1.60
2015,08,30,00,38,1.60
2015,08,30,00,40,1.60
2015,08,30,00,41,1.60
2015,08,30,00,42,1.60
2015,08,30,00,46,1.60
2015,08,30,00,47,1.60
2015,08,30,01,02,1.60
2015,08,30,01,03,1.60
2015,08,30,01,04,1.60
2015,08,30,01,05,1.60
2015,08,30,01,06,3.20
2015,08,30,01,07,1.60
2015,08,30,01,08,1.60
2015,08,30,01,10,1.60
2015,08,30,01,11,1.60
2015,08,30,01,12,1.60
2015,08,30,01,13,1.60
2015,08,30,01,14,3.20
2015,08,30,01,15,3.20
2015,08,30,01,16,3.20
2015,08,30,01,17,1.60
2015,08,30,01,18,1.60
2015,08,30,01,19,3.20
2015,08,30,01,20,3.20
2015,08,30,01,21,1.60
2015,08,30,01,22,9.60
2015,08,30,01,23,3.20
2015,08,30,01,24,3.20
2015,08,30,01,25,1.60
2015,08,30,01,26,3.20
2015,08,30,01,27,1.60
2015,08,30,01,28,3.20
2015,08,30,01,29,1.60
2015,08,30,01,34,1.60
2015,08,30,01,35,1.60
2015,08,30,01,36,3.20
2015,08,30,01,37,1.60
2015,08,30,01,38,3.20
2015,08,30,01,39,3.20
2015,08,30,01,40,3.20
2015,08,30,01,41,6.40
2015,08,30,01,42,6.40
2015,08,30,01,43,3.20
2015,08,30,01,44,1.60
2015,08,30,01,46,3.20
2015,08,30,01,47,3.20
2015,08,30,01,59,1.60
2015,08,30,02,03,1.60
2015,08,30,02,04,3.20
2015,08,30,02,05,3.20
2015,08,30,02,06,1.60
2015,08,30,02,07,3.20
2015,08,30,02,08,1.60
2015,08,30,02,09,3.20
2015,08,30,02,10,3.20
2015,08,30,02,11,1.60
2015,08,30,02,15,1.60
2015,08,30,02,21,1.60
2015,08,30,02,24,1.60
2015,08,30,02,25,1.60
2015,08,30,02,26,1.60
2015,08,30,02,27,1.60
2015,08,30,02,28,3.20
2015,08,30,02,29,1.60
2015,08,30,02,31,1.60
2015,08,30,02,32,3.20
2015,08,30,02,33,3.20
2015,08,30,02,34,3.20
2015,08,30,02,42,1.60
2015,08,30,02,43,3.20
2015,08,30,02,44,1.60
2015,08,30,02,46,3.20
2015,08,30,02,47,3.20
2015,08,30,02,48,1.60
2015,08,30,02,49,1.60
2015,08,30,02,50,1.60
2015,08,30,02,51,3.20
2015,08,30,02,52,3.20
2015,08,30,02,53,3.20
2015,08,30,02,54,3.20
2015,08,30,02,55,1.60
2015,08,30,02,56,1.60
2015,08,30,02,59,1.60
2015,08,30,03,00,1.60
2015,08,30,03,02,1.60
2015,08,30,03,09,1.60
2015,08,30,03,11,1.60
2015,08,30,03,12,1.60
2015,08,30,03,17,1.60
2015,08,30,03,18,1.60
2015,08,30,03,19,1.60
2015,08,30,03,22,1.60
2015,08,30,03,23,1.60
2015,08,30,03,24,3.20
2015,08,30,03,28,1.60
2015,08,30,03,34,1.60
2015,08,30,03,38,1.60
2015,08,30,03,53,1.60
2015,08,30,03,56,1.60
2015,08,30,03,57,1.60
2015,08,30,03,58,1.60
2015,08,30,03,59,1.60
2015,08,30,04,00,1.60
2015,08,30,04,01,3.20
2015,08,30,04,02,1.60
2015,08,30,04,03,1.60
2015,08,30,04,04,3.20
2015,08,30,04,05,3.20
2015,08,30,04,06,1.60
2015,08,30,04,07,1.60
2015,08,30,04,08,1.60
2015,08,30,04,09,3.20
2015,08,30,04,10,1.60
2015,08,30,04,11,1.60
2015,08,30,04,12,1.60
2015,08,30,04,13,1.60
2015,08,30,04,14,1.60
2015,08,30,04,22,1.60
2015,08,30,04,23,1.60
2015,08,30,04,24,1.60
2015,08,30,04,26,1.60
2015,08,30,04,27,1.60
2015,08,30,04,28,1.60
2015,08,30,04,40,1.60
2015,08,30,04,41,3.20
2015,08,30,04,42,1.60
2015,08,30,04,45,1.60
2015,08,30,04,46,1.60
2015,08,30,04,50,1.60
2015,08,30,04,51,1.60
2015,08,30,04,52,1.60
2015,08,30,04,53,1.60
2015,08,30,05,03,3.20
2015,08,30,05,04,3.20
2015,08,30,05,05,3.20
2015,08,30,05,06,1.60
2015,08,30,05,07,4.80
2015,08,30,05,08,3.20
2015,08,30,05,09,1.60
2015,08,30,05,10,3.20
2015,08,30,05,11,3.20
2015,08,30,05,12,4.80
2015,08,30,05,13,1.60
2015,08,30,05,14,1.60
2015,08,30,05,19,1.60
2015,08,30,05,27,1.60
2015,08,30,05,28,1.60
2015,08,30,05,31,1.60
2015,08,30,05,32,1.60
2015,08,30,05,33,1.60
2015,08,30,05,36,1.60
2015,08,30,05,37,1.60
2015,08,30,05,38,1.60
2015,08,30,05,39,1.60
2015,08,30,05,40,1.60
2015,08,30,05,41,1.60
2015,08,30,05,42,1.60
2015,08,30,05,44,1.60
2015,08,30,05,51,1.60
2015,08,30,05,52,1.60
2015,08,30,05,53,1.60
2015,08,30,05,54,1.60
2015,08,30,06,10,1.60
2015,08,30,06,14,1.60
2015,08,30,06,18,1.60
2015,08,30,06,19,1.60
2015,08,30,06,20,1.60
2015,08,30,06,21,4.80
2015,08,30,06,22,3.20
2015,08,30,06,23,3.20
2015,08,30,06,24,3.20
2015,08,30,06,25,3.20
2015,08,30,06,26,1.60
2015,08,30,06,27,1.60
2015,08,30,06,28,3.20
2015,08,30,06,29,3.20
2015,08,30,06,30,3.20
2015,08,30,06,31,3.20
2015,08,30,06,32,3.20
2015,08,30,06,33,1.60
2015,08,30,06,34,1.60
2015,08,30,06,35,1.60
2015,08,30,06,36,1.60
2015,08,30,06,37,1.60
2015,08,30,06,38,1.60
2015,08,30,06,39,3.20
2015,08,30,06,40,3.20
2015,08,30,06,41,3.20
2015,08,30,06,42,3.20
2015,08,30,06,43,3.20
2015,08,30,06,44,1.60
2015,08,30,06,45,1.60
2015,08,30,06,46,1.60
2015,08,30,06,49,1.60
2015,08,30,06,50,1.60
2015,08,30,07,00,1.60
2015,08,30,07,01,1.60
2015,08,30,07,22,1.60
2015,08,30,07,23,3.20
2015,08,30,07,24,3.20
2015,08,30,07,25,1.60
2015,08,30,07,26,1.60
2015,08,30,07,30,3.20
2015,08,30,07,31,3.20
2015,08,30,07,32,3.20
2015,08,30,07,33,1.60
2015,08,30,07,37,1.60
2015,08,30,07,38,1.60
2015,08,30,07,39,3.20
2015,08,30,07,40,1.60
2015,08,30,07,47,1.60
2015,08,30,07,48,3.20
2015,08,30,07,49,3.20
2015,08,30,07,50,3.20
2015,08,30,07,51,3.20
2015,08,30,07,52,3.20
2015,08,30,07,53,3.20
2015,08,30,07,54,4.80
2015,08,30,07,55,1.60
2015,08,30,07,58,1.60
2015,08,30,07,59,1.60
2015,08,30,08,00,1.60
2015,08,30,08,01,1.60
2015,08,30,08,02,1.60
2015,08,30,08,03,1.60
2015,08,30,08,04,1.60
2015,08,30,08,15,3.20
2015,08,30,08,16,1.60
2015,08,30,08,17,1.60
2015,08,30,08,23,1.60
2015,08,30,08,24,1.60
2015,08,30,08,25,1.60
2015,08,30,08,27,1.60
2015,08,30,08,36,1.60
2015,08,30,08,37,1.60
2015,08,30,08,57,1.60
2015,08,30,08,58,1.60
2015,08,30,08,59,1.60
2015,08,30,09,00,1.60
2015,08,30,09,01,1.60
2015,08,30,09,02,1.60
2015,08,30,09,03,1.60
2015,08,30,09,04,1.60
2015,08,30,09,07,1.60
2015,08,30,09,08,1.60
2015,08,30,09,09,1.60
2015,08,30,09,10,1.60
2015,08,30,09,12,1.60
2015,08,30,09,19,3.20
2015,08,30,09,20,3.20
2015,08,30,09,21,3.20
2015,08,30,09,22,3.20
2015,08,30,09,23,3.20
2015,08,30,09,24,3.20
2015,08,30,09,25,4.80
2015,08,30,09,26,4.80
2015,08,30,09,27,3.20
2015,08,30,09,28,1.60
2015,08,30,09,29,1.60
2015,08,30,09,30,3.20
2015,08,30,09,31,3.20
2015,08,30,09,32,1.60
2015,08,30,09,33,1.60
2015,08,30,09,34,1.60
2015,08,30,09,35,1.60
2015,08,30,09,37,1.60
2015,08,30,09,38,1.60
2015,08,30,09,39,1.60
2015,08,30,09,40,3.20
2015,08,30,09,41,3.20
2015,08,30,09,42,3.20
2015,08,30,09,43,1.60
2015,08,30,09,49,1.60
2015,08,30,09,50,1.60
2015,08,30,09,51,1.60
2015,08,30,09,52,1.60
2015,08,30,09,53,1.60
2015,08,30,09,54,1.60
2015,08,30,09,55,3.20
2015,08,30,09,56,3.20
2015,08,30,09,57,4.80
2015,08,30,09,58,1.60
2015,08,30,10,02,1.60
2015,08,30,10,03,3.20
2015,08,30,10,04,1.60
2015,08,30,10,05,3.20
2015,08,30,10,06,4.80
2015,08,30,10,07,3.20
2015,08,30,10,08,3.20
2015,08,30,10,09,3.20
2015,08,30,10,10,3.20
2015,08,30,10,11,3.20
2015,08,30,10,12,4.80
2015,08,30,10,13,6.40
2015,08,30,10,14,6.40
2015,08,30,10,15,4.80
2015,08,30,10,16,3.20
2015,08,30,10,17,3.20
2015,08,30,10,18,4.80
2015,08,30,10,19,4.80
2015,08,30,10,20,4.80
2015,08,30,10,21,6.40
2015,08,30,10,22,6.40
2015,08,30,10,23,4.80
2015,08,30,10,24,6.40
2015,08,30,10,25,4.80
2015,08,30,10,26,4.80
2015,08,30,10,27,4.80
2015,08,30,10,28,6.40
2015,08,30,10,29,6.40
2015,08,30,10,30,6.40
2015,08,30,10,31,6.40
2015,08,30,10,32,6.40
2015,08,30,10,33,3.20
2015,08,30,10,34,6.40
2015,08,30,10,35,4.80
2015,08,30,10,36,6.40
2015,08,30,10,37,8.10
2015,08,30,10,38,6.40
2015,08,30,10,39,3.20
2015,08,30,10,40,4.80
2015,08,30,10,41,4.80
2015,08,30,10,42,6.40
2015,08,30,10,43,4.80
2015,08,30,10,44,3.20
2015,08,30,10,45,4.80
2015,08,30,10,46,3.20
2015,08,30,10,47,3.20
2015,08,30,10,48,1.60
2015,08,30,10,49,3.20
2015,08,30,10,50,3.20
2015,08,30,10,51,3.20
2015,08,30,10,52,6.40
2015,08,30,10,53,3.20
2015,08,30,10,54,9.60
2015,08,30,10,55,4.80
2015,08,30,10,56,4.80
2015,08,30,10,57,6.40
2015,08,30,10,58,1.60
2015,08,30,10,59,3.20
2015,08,30,11,00,4.80
2015,08,30,11,01,6.40
2015,08,30,11,02,6.40
2015,08,30,11,03,4.80
2015,08,30,11,04,4.80
2015,08,30,11,05,3.20
2015,08,30,11,06,3.20
2015,08,30,11,07,4.80
2015,08,30,11,08,3.20
2015,08,30,11,09,1.60
2015,08,30,11,10,1.60
2015,08,30,11,11,6.40
2015,08,30,11,12,4.80
2015,08,30,11,13,3.20
2015,08,30,11,14,4.80
2015,08,30,11,15,3.20
2015,08,30,11,16,6.40
2015,08,30,11,17,6.40
2015,08,30,11,18,6.40
2015,08,30,11,19,8.10
2015,08,30,11,20,6.40
2015,08,30,11,21,12.90
2015,08,30,11,22,8.10
2015,08,30,11,23,6.40
2015,08,30,11,24,8.10
2015,08,30,11,25,8.10
2015,08,30,11,26,11.30
2015,08,30,11,27,12.90
2015,08,30,11,28,11.30
2015,08,30,11,29,17.70
2015,08,30,11,30,16.10
2015,08,30,11,31,14.50
2015,08,30,11,32,16.10
2015,08,30,11,33,14.50
2015,08,30,11,34,11.30
2015,08,30,11,35,12.90
2015,08,30,11,36,12.90
2015,08,30,11,37,14.50
2015,08,30,11,38,14.50
2015,08,30,11,39,11.30
2015,08,30,11,40,9.60
2015,08,30,11,41,12.90
2015,08,30,11,42,14.50
2015,08,30,11,43,11.30
2015,08,30,11,44,17.70
2015,08,30,11,45,14.50
2015,08,30,11,46,12.90
2015,08,30,11,47,17.70
2015,08,30,11,48,12.90
2015,08,30,11,49,14.50
2015,08,30,11,50,14.50
2015,08,30,11,51,12.90
2015,08,30,11,52,12.90
2015,08,30,11,53,6.40
2015,08,30,11,54,9.60
2015,08,30,11,55,8.10
2015,08,30,11,56,11.30
2015,08,30,11,57,8.10
2015,08,30,11,58,6.40
2015,08,30,11,59,8.10
2015,08,30,12,00,11.30
2015,08,30,12,01,8.10
2015,08,30,12,02,6.40
2015,08,30,12,03,6.40
2015,08,30,12,04,4.80
2015,08,30,12,05,6.40
2015,08,30,12,06,11.30
2015,08,30,12,07,6.40
2015,08,30,12,08,9.60
2015,08,30,12,09,9.60
2015,08,30,12,10,8.10
2015,08,30,12,11,14.50
2015,08,30,12,12,14.50
2015,08,30,12,13,11.30
2015,08,30,12,14,8.10
2015,08,30,12,15,6.40
2015,08,30,12,16,4.80
2015,08,30,12,17,9.60
2015,08,30,12,18,9.60
2015,08,30,12,19,14.50
2015,08,30,12,20,9.60
2015,08,30,12,21,14.50
2015,08,30,12,22,14.50
2015,08,30,12,23,12.90
2015,08,30,12,24,12.90
2015,08,30,12,25,8.10
2015,08,30,12,26,12.90
2015,08,30,12,27,14.50
2015,08,30,12,28,9.60
2015,08,30,12,29,11.30
2015,08,30,12,30,9.60
2015,08,30,12,31,11.30
2015,08,30,12,32,11.30
2015,08,30,12,33,14.50
2015,08,30,12,34,11.30
2015,08,30,12,35,9.60
2015,08,30,12,36,11.30
2015,08,30,12,37,16.10
2015,08,30,12,38,16.10
2015,08,30,12,39,14.50
2015,08,30,12,40,14.50
2015,08,30,12,41,14.50
2015,08,30,12,42,16.10
2015,08,30,12,43,17.70
2015,08,30,12,44,14.50
2015,08,30,12,45,22.50
2015,08,30,12,46,17.70
2015,08,30,12,47,14.50
2015,08,30,12,48,17.70
2015,08,30,12,49,24.20
2015,08,30,12,50,22.50
2015,08,30,12,51,22.50
2015,08,30,12,52,14.50
2015,08,30,12,53,16.10
2015,08,30,12,54,19.30
2015,08,30,12,55,17.70
2015,08,30,12,56,17.70
2015,08,30,12,57,12.90
2015,08,30,12,58,17.70
2015,08,30,12,59,17.70
2015,08,30,13,00,17.70
2015,08,30,13,01,19.30
2015,08,30,13,02,11.30
2015,08,30,13,03,17.70
2015,08,30,13,04,16.10
2015,08,30,13,05,12.90
2015,08,30,13,06,16.10
2015,08,30,13,07,22.50
2015,08,30,13,08,17.70
2015,08,30,13,09,16.10
2015,08,30,13,10,20.90
2015,08,30,13,11,12.90
2015,08,30,13,12,24.20
2015,08,30,13,13,20.90
2015,08,30,13,14,24.20
2015,08,30,13,15,19.30
2015,08,30,13,16,14.50
2015,08,30,13,17,16.10
2015,08,30,13,18,17.70
2015,08,30,13,19,19.30
2015,08,30,13,20,17.70
2015,08,30,13,21,25.70
2015,08,30,13,22,25.70
2015,08,30,13,23,27.40
2015,08,30,13,24,20.90
2015,08,30,13,25,22.50
2015,08,30,13,26,16.10
2015,08,30,13,27,19.30
2015,08,30,13,28,20.90
2015,08,30,13,29,16.10
2015,08,30,13,30,20.90
2015,08,30,13,31,29.00
2015,08,30,13,32,24.20
2015,08,30,13,33,22.50
2015,08,30,13,34,14.50
2015,08,30,13,35,19.30
2015,08,30,13,36,14.50
2015,08,30,13,37,12.90
2015,08,30,13,38,14.50
2015,08,30,13,39,16.10
2015,08,30,13,40,12.90
2015,08,30,13,41,16.10
2015,08,30,13,42,19.30
2015,08,30,13,43,14.50
2015,08,30,13,44,20.90
2015,08,30,13,45,20.90
2015,08,30,13,46,19.30
2015,08,30,13,47,17.70
2015,08,30,13,48,17.70
2015,08,30,13,49,19.30
2015,08,30,13,50,14.50
2015,08,30,13,51,17.70
2015,08,30,13,52,25.70
2015,08,30,13,53,27.40
2015,08,30,13,54,17.70
2015,08,30,13,55,17.70
2015,08,30,13,56,16.10
2015,08,30,13,57,14.50
2015,08,30,13,58,20.90
2015,08,30,13,59,22.50
2015,08,30,14,00,27.40
2015,08,30,14,01,22.50
2015,08,30,14,02,22.50
2015,08,30,14,03,22.50
2015,08,30,14,04,17.70
2015,08,30,14,05,22.50
2015,08,30,14,06,22.50
2015,08,30,14,07,29.00
2015,08,30,14,08,19.30
2015,08,30,14,09,24.20
2015,08,30,14,10,24.20
2015,08,30,14,11,20.90
2015,08,30,14,12,20.90
2015,08,30,14,13,22.50
2015,08,30,14,14,17.70
2015,08,30,14,15,20.90
2015,08,30,14,16,19.30
2015,08,30,14,17,20.90
2015,08,30,14,18,19.30
2015,08,30,14,19,24.20
2015,08,30,14,20,19.30
2015,08,30,14,21,19.30
2015,08,30,14,22,22.50
2015,08,30,14,23,25.70
2015,08,30,14,24,22.50
2015,08,30,14,25,22.50
2015,08,30,14,26,22.50
2015,08,30,14,27,16.10
2015,08,30,14,28,22.50
2015,08,30,14,29,20.90
2015,08,30,14,30,20.90
2015,08,30,14,31,17.70
2015,08,30,14,32,11.30
2015,08,30,14,33,12.90
2015,08,30,14,34,17.70
2015,08,30,14,35,16.10
2015,08,30,14,36,11.30
2015,08,30,14,37,17.70
2015,08,30,14,38,20.90
2015,08,30,14,39,24.20
2015,08,30,14,40,25.70
2015,08,30,14,41,17.70
2015,08,30,14,42,22.50
2015,08,30,14,43,20.90
2015,08,30,14,44,19.30
2015,08,30,14,45,14.50
2015,08,30,14,46,19.30
2015,08,30,14,47,20.90
2015,08,30,14,48,19.30
2015,08,30,14,49,16.10
2015,08,30,14,50,17.70
2015,08,30,14,51,25.70
2015,08,30,14,52,24.20
2015,08,30,14,53,29.00
2015,08,30,14,54,24.20
2015,08,30,14,55,24.20
2015,08,30,14,56,24.20
2015,08,30,14,57,24.20
2015,08,30,14,58,14.50
2015,08,30,14,59,16.10
2015,08,30,15,00,12.90
2015,08,30,15,01,17.70
2015,08,30,15,02,19.30
2015,08,30,15,03,24.20
2015,08,30,15,04,17.70
2015,08,30,15,05,16.10
2015,08,30,15,06,17.70
2015,08,30,15,07,16.10
2015,08,30,15,08,19.30
2015,08,30,15,09,16.10
2015,08,30,15,10,17.70
2015,08,30,15,11,20.90
2015,08,30,15,12,12.90
2015,08,30,15,13,16.10
2015,08,30,15,14,19.30
2015,08,30,15,15,20.90
2015,08,30,15,16,22.50
2015,08,30,15,17,22.50
2015,08,30,15,18,19.30
2015,08,30,15,19,12.90
2015,08,30,15,20,20.90
2015,08,30,15,21,16.10
2015,08,30,15,22,24.20
2015,08,30,15,23,19.30
2015,08,30,15,24,20.90
2015,08,30,15,25,22.50
2015,08,30,15,26,22.50
2015,08,30,15,27,22.50
2015,08,30,15,28,20.90
2015,08,30,15,29,20.90
2015,08,30,15,30,22.50
2015,08,30,15,31,24.20
2015,08,30,15,32,20.90
2015,08,30,15,33,20.90
2015,08,30,15,34,20.90
2015,08,30,15,35,20.90
2015,08,30,15,36,24.20
2015,08,30,15,37,24.20
2015,08,30,15,38,19.30
2015,08,30,15,39,24.20
2015,08,30,15,40,25.70
2015,08,30,15,41,22.50
2015,08,30,15,42,24.20
2015,08,30,15,43,19.30
2015,08,30,15,44,24.20
2015,08,30,15,45,17.70
2015,08,30,15,46,17.70
2015,08,30,15,47,22.50
2015,08,30,15,48,17.70
2015,08,30,15,49,14.50
2015,08,30,15,50,14.50
2015,08,30,15,51,17.70
2015,08,30,15,52,16.10
2015,08,30,15,53,20.90
2015,08,30,15,54,14.50
2015,08,30,15,55,20.90
2015,08,30,15,56,20.90
2015,08,30,15,57,22.50
2015,08,30,15,58,24.20
2015,08,30,15,59,19.30
2015,08,30,16,00,17.70
2015,08,30,16,01,19.30
2015,08,30,16,02,19.30
2015,08,30,16,03,24.20
2015,08,30,16,04,22.50
2015,08,30,16,05,25.70
2015,08,30,16,06,30.60
2015,08,30,16,07,27.40
2015,08,30,16,08,25.70
2015,08,30,16,09,25.70
2015,08,30,16,10,19.30
2015,08,30,16,11,22.50
2015,08,30,16,12,24.20
2015,08,30,16,13,27.40
2015,08,30,16,14,19.30
2015,08,30,16,15,14.50
2015,08,30,16,16,22.50
2015,08,30,16,17,22.50
2015,08,30,16,18,17.70
2015,08,30,16,19,17.70
2015,08,30,16,20,20.90
2015,08,30,16,21,17.70
2015,08,30,16,22,19.30
2015,08,30,16,23,19.30
2015,08,30,16,24,29.00
2015,08,30,16,25,25.70
2015,08,30,16,26,22.50
2015,08,30,16,27,19.30
2015,08,30,16,28,24.20
2015,08,30,16,29,20.90
2015,08,30,16,30,24.20
2015,08,30,16,31,30.60
2015,08,30,16,32,25.70
2015,08,30,16,33,25.70
2015,08,30,16,34,19.30
2015,08,30,16,35,17.70
2015,08,30,16,36,16.10
2015,08,30,16,37,22.50
2015,08,30,16,38,24.20
2015,08,30,16,39,17.70
2015,08,30,16,40,16.10
2015,08,30,16,41,16.10
2015,08,30,16,42,14.50
2015,08,30,16,43,20.90
2015,08,30,16,44,20.90
2015,08,30,16,45,17.70
2015,08,30,16,46,20.90
2015,08,30,16,47,20.90
2015,08,30,16,48,20.90
2015,08,30,16,49,19.30
2015,08,30,16,50,24.20
2015,08,30,16,51,19.30
2015,08,30,16,52,24.20
2015,08,30,16,53,22.50
2015,08,30,16,54,22.50
2015,08,30,16,55,24.20
2015,08,30,16,56,27.40
2015,08,30,16,57,29.00
2015,08,30,16,58,24.20
2015,08,30,16,59,24.20
2015,08,30,17,00,24.20
2015,08,30,17,01,22.50
2015,08,30,17,02,19.30
2015,08,30,17,03,22.50
2015,08,30,17,04,22.50
2015,08,30,17,05,20.90
2015,08,30,17,06,24.20
2015,08,30,17,07,14.50
2015,08,30,17,08,17.70
2015,08,30,17,09,14.50
2015,08,30,17,10,17.70
2015,08,30,17,11,19.30
2015,08,30,17,12,16.10
2015,08,30,17,13,14.50
2015,08,30,17,14,20.90
2015,08,30,17,15,14.50
2015,08,30,17,16,12.90
2015,08,30,17,17,14.50
2015,08,30,17,18,11.30
2015,08,30,17,19,11.30
2015,08,30,17,20,9.60
2015,08,30,17,21,9.60
2015,08,30,17,22,14.50
2015,08,30,17,23,16.10
2015,08,30,17,24,11.30
2015,08,30,17,25,11.30
2015,08,30,17,26,9.60
2015,08,30,17,27,16.10
2015,08,30,17,28,14.50
2015,08,30,17,29,8.10
2015,08,30,17,30,17.70
2015,08,30,17,31,16.10
2015,08,30,17,32,17.70
2015,08,30,17,33,17.70
2015,08,30,17,34,17.70
2015,08,30,17,35,22.50
2015,08,30,17,36,20.90
2015,08,30,17,37,16.10
2015,08,30,17,38,12.90
2015,08,30,17,39,16.10
2015,08,30,17,40,16.10
2015,08,30,17,41,14.50
2015,08,30,17,42,12.90
2015,08,30,17,43,12.90
2015,08,30,17,44,14.50
2015,08,30,17,45,24.20
2015,08,30,17,46,20.90
2015,08,30,17,47,17.70
2015,08,30,17,48,14.50
2015,08,30,17,49,17.70
2015,08,30,17,50,16.10
2015,08,30,17,51,14.50
2015,08,30,17,52,20.90
2015,08,30,17,53,20.90
2015,08,30,17,54,14.50
2015,08,30,17,55,14.50
2015,08,30,17,56,11.30
2015,08,30,17,57,19.30
2015,08,30,17,58,20.90
2015,08,30,17,59,24.20
2015,08,30,18,00,19.30
2015,08,30,18,01,19.30
2015,08,30,18,02,11.30
2015,08,30,18,03,20.90
2015,08,30,18,04,22.50
2015,08,30,18,05,17.70
2015,08,30,18,06,20.90
2015,08,30,18,07,16.10
2015,08,30,18,08,12.90
2015,08,30,18,09,19.30
2015,08,30,18,10,24.20
2015,08,30,18,11,14.50
2015,08,30,18,12,16.10
2015,08,30,18,13,19.30
2015,08,30,18,14,16.10
2015,08,30,18,15,16.10
2015,08,30,18,16,20.90
2015,08,30,18,17,17.70
2015,08,30,18,18,14.50
2015,08,30,18,19,19.30
2015,08,30,18,20,14.50
2015,08,30,18,21,14.50
2015,08,30,18,22,19.30
2015,08,30,18,23,17.70
2015,08,30,18,24,29.00
2015,08,30,18,25,25.70
2015,08,30,18,26,27.40
2015,08,30,18,27,19.30
2015,08,30,18,28,22.50
2015,08,30,18,29,24.20
2015,08,30,18,30,20.90
2015,08,30,18,31,22.50
2015,08,30,18,32,19.30
2015,08,30,18,33,25.70
2015,08,30,18,34,27.40
2015,08,30,18,35,22.50
2015,08,30,18,36,25.70
2015,08,30,18,37,20.90
2015,08,30,18,38,29.00
2015,08,30,18,39,27.40
2015,08,30,18,40,37.00
2015,08,30,18,41,25.70
2015,08,30,18,42,29.00
2015,08,30,18,43,24.20
2015,08,30,18,44,19.30
2015,08,30,18,45,17.70
2015,08,30,18,46,27.40
2015,08,30,18,47,38.60
2015,08,30,18,48,30.60
2015,08,30,18,49,29.00
2015,08,30,18,50,24.20
2015,08,30,18,51,35.40
2015,08,30,18,52,24.20
2015,08,30,18,53,25.70
2015,08,30,18,54,25.70
2015,08,30,18,55,30.60
2015,08,30,18,56,27.40
2015,08,30,18,57,20.90
2015,08,30,18,58,30.60
2015,08,30,18,59,27.40
2015,08,30,19,00,27.40
2015,08,30,19,01,25.70
2015,08,30,19,02,22.50
2015,08,30,19,03,25.70
2015,08,30,19,04,30.60
2015,08,30,19,05,24.20
2015,08,30,19,06,35.40
2015,08,30,19,07,37.00
2015,08,30,19,08,27.40
2015,08,30,19,09,33.80
2015,08,30,19,10,25.70
2015,08,30,19,11,24.20
2015,08,30,19,12,29.00
2015,08,30,19,13,24.20
2015,08,30,19,14,30.60
2015,08,30,19,15,30.60
2015,08,30,19,16,22.50
2015,08,30,19,17,20.90
2015,08,30,19,18,19.30
2015,08,30,19,19,29.00
2015,08,30,19,20,25.70
2015,08,30,19,21,25.70
2015,08,30,19,22,22.50
2015,08,30,19,23,20.90
2015,08,30,19,24,22.50
2015,08,30,19,25,22.50
2015,08,30,19,26,19.30
2015,08,30,19,27,22.50
2015,08,30,19,28,24.20
2015,08,30,19,29,19.30
2015,08,30,19,30,20.90
2015,08,30,19,31,24.20
2015,08,30,19,32,20.90
2015,08,30,19,33,17.70
2015,08,30,19,34,25.70
2015,08,30,19,35,17.70
2015,08,30,19,36,22.50
2015,08,30,19,37,27.40
2015,08,30,19,38,20.90
2015,08,30,19,39,29.00
2015,08,30,19,40,25.70
2015,08,30,19,41,33.80
2015,08,30,19,42,29.00
2015,08,30,19,43,19.30
2015,08,30,19,44,22.50
2015,08,30,19,45,32.20
2015,08,30,19,46,27.40
2015,08,30,19,47,19.30
2015,08,30,19,48,20.90
2015,08,30,19,49,20.90
2015,08,30,19,50,27.40
2015,08,30,19,51,35.40
2015,08,30,19,52,38.60
2015,08,30,19,53,40.20
2015,08,30,19,54,22.50
2015,08,30,19,55,25.70
2015,08,30,19,56,25.70
2015,08,30,19,57,24.20
2015,08,30,19,58,20.90
2015,08,30,19,59,17.70
2015,08,30,20,00,20.90
2015,08,30,20,01,12.90
2015,08,30,20,02,24.20
2015,08,30,20,03,27.40
2015,08,30,20,04,20.90
2015,08,30,20,05,24.20
2015,08,30,20,06,29.00
2015,08,30,20,07,30.60
2015,08,30,20,08,27.40
2015,08,30,20,09,27.40
2015,08,30,20,10,22.50
2015,08,30,20,11,17.70
2015,08,30,20,12,20.90
2015,08,30,20,13,37.00
2015,08,30,20,14,25.70
2015,08,30,20,15,24.20
2015,08,30,20,16,27.40
2015,08,30,20,17,19.30
2015,08,30,20,18,22.50
2015,08,30,20,19,25.70
2015,08,30,20,20,19.30
2015,08,30,20,21,19.30
2015,08,30,20,22,19.30
2015,08,30,20,23,20.90
2015,08,30,20,24,24.20
2015,08,30,20,25,12.90
2015,08,30,20,26,17.70
2015,08,30,20,27,12.90
2015,08,30,20,28,12.90
2015,08,30,20,29,20.90
2015,08,30,20,30,22.50
2015,08,30,20,31,17.70
2015,08,30,20,32,16.10
2015,08,30,20,33,24.20
2015,08,30,20,34,19.30
2015,08,30,20,35,17.70
2015,08,30,20,36,22.50
2015,08,30,20,37,22.50
2015,08,30,20,38,30.60
2015,08,30,20,39,22.50
2015,08,30,20,40,17.70
2015,08,30,20,41,17.70
2015,08,30,20,42,17.70
2015,08,30,20,43,30.60
2015,08,30,20,44,32.20
2015,08,30,20,45,22.50
2015,08,30,20,46,22.50
2015,08,30,20,47,20.90
2015,08,30,20,48,17.70
2015,08,30,20,49,12.90
2015,08,30,20,50,16.10
2015,08,30,20,51,14.50
2015,08,30,20,52,20.90
2015,08,30,20,53,17.70
2015,08,30,20,54,29.00
2015,08,30,20,55,22.50
2015,08,30,20,56,32.20
2015,08,30,20,57,22.50
2015,08,30,20,58,27.40
2015,08,30,20,59,30.60
2015,08,30,21,00,25.70
2015,08,30,21,01,24.20
2015,08,30,21,02,25.70
2015,08,30,21,03,24.20
2015,08,30,21,04,16.10
2015,08,30,21,05,24.20
2015,08,30,21,06,22.50
2015,08,30,21,07,24.20
2015,08,30,21,08,29.00
2015,08,30,21,09,29.00
2015,08,30,21,10,24.20
2015,08,30,21,11,25.70
2015,08,30,21,12,25.70
2015,08,30,21,13,22.50
2015,08,30,21,14,25.70
2015,08,30,21,15,22.50
2015,08,30,21,16,29.00
2015,08,30,21,17,27.40
2015,08,30,21,18,25.70
2015,08,30,21,19,19.30
2015,08,30,21,20,24.20
2015,08,30,21,21,22.50
2015,08,30,21,22,22.50
2015,08,30,21,23,25.70
2015,08,30,21,24,27.40
2015,08,30,21,25,25.70
2015,08,30,21,26,25.70
2015,08,30,21,27,19.30
2015,08,30,21,28,20.90
2015,08,30,21,29,20.90
2015,08,30,21,30,16.10
2015,08,30,21,31,20.90
2015,08,30,21,32,22.50
2015,08,30,21,33,11.30
2015,08,30,21,34,22.50
2015,08,30,21,35,16.10
2015,08,30,21,36,22.50
2015,08,30,21,37,17.70
2015,08,30,21,38,14.50
2015,08,30,21,39,12.90
2015,08,30,21,40,12.90
2015,08,30,21,41,11.30
2015,08,30,21,42,12.90
2015,08,30,21,43,12.90
2015,08,30,21,44,14.50
2015,08,30,21,45,17.70
2015,08,30,21,46,17.70
2015,08,30,21,47,22.50
2015,08,30,21,48,19.30
2015,08,30,21,49,19.30
2015,08,30,21,50,16.10
2015,08,30,21,51,17.70
2015,08,30,21,52,19.30
2015,08,30,21,53,16.10
2015,08,30,21,54,17.70
2015,08,30,21,55,22.50
2015,08,30,21,56,25.70
2015,08,30,21,57,25.70
2015,08,30,21,58,24.20
2015,08,30,21,59,24.20
2015,08,30,22,00,25.70
2015,08,30,22,01,22.50
2015,08,30,22,02,19.30
2015,08,30,22,03,24.20
2015,08,30,22,04,24.20
2015,08,30,22,05,24.20
2015,08,30,22,06,25.70
2015,08,30,22,07,22.50
2015,08,30,22,08,20.90
2015,08,30,22,09,19.30
2015,08,30,22,10,19.30
2015,08,30,22,11,22.50
2015,08,30,22,12,22.50
2015,08,30,22,13,22.50
2015,08,30,22,14,16.10
2015,08,30,22,15,16.10
2015,08,30,22,16,9.60
2015,08,30,22,17,9.60
2015,08,30,22,18,9.60
2015,08,30,22,19,12.90
2015,08,30,22,20,19.30
2015,08,30,22,21,19.30
2015,08,30,22,22,20.90
2015,08,30,22,23,11.30
2015,08,30,22,24,9.60
2015,08,30,22,25,17.70
2015,08,30,22,26,14.50
2015,08,30,22,27,20.90
2015,08,30,22,28,20.90
2015,08,30,22,29,20.90
2015,08,30,22,30,22.50
2015,08,30,22,31,17.70
2015,08,30,22,32,20.90